Weather History for Houma, LA

Change the Weather History Date:

Wednesday, February 12, 2014

  Actual Average Record
Temperature  
Mean Temperature 38 °F -  
Max Temperature 41 °F 63 °F 82 °F (1932)
Min Temperature 36 °F 43 °F 24 °F (1955)
Degree Days  
Heating Degree Days 26    
Moisture  
Dew Point 36 °F    
Average Humidity 90    
Maximum Humidity 100    
Minimum Humidity 83    
Precipitation  
Precipitation 0.32 in - - ()
Sea Level Pressure  
Sea Level Pressure 29.99 in    
Wind  
Wind Speed 11 mph (NW)    
Max Wind Speed 22 mph    
Max Gust Speed 21 mph    
Visibility 6 miles    
Events Rain , Thunderstorm    
Averages and records for this station are not official NWS values.
T = Trace of Precipitation, MM = Missing Value Source: NWS Daily Summary

Daily Weather History Graph

Daily Weather History Graph

Search for Another Location

Airport:

Trip Planner

Search our weather history database for the weather conditions in past years. The results will help you decide how hot, cold, wet, or windy it might be!

Date:

Astronomy

Feb. 12, 2014 Rise Set
Actual Time 6:44 AM CST 5:49 PM CST
Civil Twilight 6:20 AM CST 6:14 PM CST
Nautical Twilight 5:51 AM CST 6:42 PM CST
Astronomical Twilight 5:24 AM CST 7:09 PM CST
Moon 4:06 PM CST (2/12) 4:57 AM CST (2/12)
Length of Visible Light 11h 54m
Length of Day
11h 05m
Waxing Gibbous, 95% of the Moon is Illuminated
Feb 12
Waxing Gibbous
Feb 14
Full
Feb 22
Last Quarter
Mar 1
New
Mar 8
First Quarter

Hourly Weather History & Observations

Time (CST) Temp. Windchill Dew Point Humidity Pressure Visibility Wind Dir Wind Speed Gust Speed Precip Events Conditions
12:15 AM 40.6 °F 34.3 °F 39.2 °F 95% 30.00 in 7.0 mi NNE 10.4 mph - N/A Rain , Thunderstorm Light Thunderstorms and Rain
12:35 AM 40.5 °F 33.6 °F 38.8 °F 94% 29.98 in 3.0 mi NNE 11.5 mph - N/A Thunderstorm Unknown
12:55 AM 40.5 °F 33.6 °F 38.8 °F 94% 30.01 in 2.5 mi NW 11.5 mph 18.4 mph N/A Rain , Thunderstorm Light Thunderstorms and Rain
1:15 AM 40.3 °F 33.4 °F 38.7 °F 94% 30.06 in 2.0 mi West 11.5 mph 19.6 mph 0.03 in Rain , Thunderstorm Light Thunderstorms and Rain
1:35 AM 40.3 °F 37.1 °F 38.7 °F 94% 30.00 in 2.0 mi East 4.6 mph - 0.31 in Thunderstorm Unknown
1:55 AM 41.0 °F 36.4 °F 39.4 °F 94% 30.01 in 10.0 mi NNW 6.9 mph - 0.32 in Thunderstorm Unknown
2:15 AM 40.6 °F 36.0 °F 39.2 °F 95% 29.98 in 7.0 mi NNW 6.9 mph - N/A Rain , Thunderstorm Light Thunderstorms and Rain
2:35 AM 40.6 °F 36.0 °F 39.2 °F 95% 29.98 in 10.0 mi NNW 6.9 mph - N/A Thunderstorm Unknown
2:55 AM 40.5 °F 35.8 °F 39.2 °F 95% 29.97 in 7.0 mi WNW 6.9 mph 16.1 mph N/A Rain , Thunderstorm Light Thunderstorms and Rain
3:15 AM 39.6 °F 33.0 °F 38.1 °F 95% 29.96 in 7.0 mi NNW 10.4 mph - N/A Rain , Thunderstorm Rain
3:35 AM 38.8 °F 31.2 °F 37.4 °F 95% 29.96 in 10.0 mi NNW 12.7 mph 17.3 mph N/A Rain Light Rain
3:55 AM 38.7 °F 32.9 °F 37.4 °F 95% 29.97 in 7.0 mi NNW 8.1 mph - N/A   Unknown
4:15 AM 38.7 °F 32.4 °F 37.2 °F 95% 29.95 in 7.0 mi North 9.2 mph - N/A   Unknown
4:35 AM 38.5 °F 32.7 °F 37.0 °F 95% 29.95 in 7.0 mi North 8.1 mph - N/A   Unknown
4:55 AM 38.5 °F 31.1 °F 37.2 °F 95% 29.95 in 10.0 mi NNW 11.5 mph - N/A Rain Light Rain
5:51 AM 39.2 °F 31.6 °F 37.4 °F 93% 29.96 in 6.0 mi North 12.7 mph - N/A   Mostly Cloudy
6:50 AM 39.2 °F 32.0 °F 37.4 °F 93% 29.99 in 6.0 mi NNW 11.5 mph - N/A   Mostly Cloudy
7:13 AM 39.2 °F 32.0 °F 37.4 °F 93% 29.99 in 5.0 mi NNW 11.5 mph - N/A   Overcast
7:50 AM 39.2 °F 32.0 °F 37.4 °F 93% 30.00 in 5.0 mi NNW 11.5 mph - N/A   Overcast
8:51 AM 39.2 °F 30.5 °F 37.4 °F 93% 30.00 in 6.0 mi NNW 16.1 mph - N/A   Overcast
9:50 AM 39.2 °F 32.0 °F 37.4 °F 93% 29.99 in 5.0 mi NNW 11.5 mph - N/A   Overcast
10:48 AM 39.2 °F 32.0 °F 37.4 °F 93% 29.99 in 5.0 mi NNW 11.5 mph - N/A   Overcast
11:48 AM 39.2 °F 31.6 °F 39.2 °F 100% 29.97 in 4.0 mi NNW 12.7 mph - N/A   Overcast
12:50 PM 41.0 °F 34.7 °F 39.2 °F 93% 29.96 in 3.0 mi NW 10.4 mph - N/A   Overcast
1:50 PM 41.0 °F 34.3 °F 39.2 °F 93% 29.94 in 4.0 mi WNW 11.5 mph - N/A   Overcast
2:50 PM 41.0 °F 34.3 °F 39.2 °F 93% 29.91 in 5.0 mi NW 11.5 mph - N/A   Overcast
3:50 PM 41.0 °F 34.3 °F 37.4 °F 87% 29.91 in 5.0 mi NW 11.5 mph - N/A   Overcast
4:50 PM 39.2 °F 29.0 °F 35.6 °F 87% 29.95 in 5.0 mi NW 21.9 mph - N/A   Overcast
5:50 PM 37.4 °F 28.2 °F 35.6 °F 93% 29.96 in 5.0 mi NW 16.1 mph - N/A   Overcast
6:15 PM 37.9 °F 30.9 °F 34.2 °F 86% 29.97 in 7.0 mi NW 10.4 mph 17.3 mph N/A   Unknown
6:35 PM 37.9 °F 30.5 °F 34.0 °F 86% 29.97 in 7.0 mi NW 11.5 mph 19.6 mph N/A   Unknown
6:50 PM 37.4 °F 27.8 °F 35.6 °F 93% 29.97 in 7.0 mi NW 17.3 mph - N/A   Overcast
6:55 PM 37.6 °F 30.5 °F 33.4 °F 85% 29.97 in 7.0 mi NW 10.4 mph 20.7 mph N/A   Unknown
7:15 PM 37.6 °F 28.8 °F 33.4 °F 85% 29.98 in 7.0 mi NW 15.0 mph 18.4 mph N/A   Unknown
7:35 PM 37.6 °F 29.1 °F 33.3 °F 84% 29.98 in 7.0 mi NW 13.8 mph 17.3 mph N/A   Unknown
7:55 PM 37.6 °F 31.0 °F 32.9 °F 83% 29.99 in 7.0 mi NW 9.2 mph 17.3 mph N/A   Unknown
8:15 PM 37.0 °F 29.8 °F 32.5 °F 84% 29.99 in 5.0 mi NW 10.4 mph 17.3 mph N/A   Mist
8:35 PM 37.4 °F 29.8 °F 32.5 °F 83% 30.00 in 5.0 mi NW 11.5 mph 18.4 mph N/A   Mist
8:55 PM 37.4 °F 29.8 °F 32.9 °F 84% 30.01 in 7.0 mi NW 11.5 mph 16.1 mph N/A   Unknown
9:15 PM 37.0 °F 29.3 °F 32.4 °F 83% 30.02 in 5.0 mi NW 11.5 mph 17.3 mph N/A   Haze
9:35 PM 37.0 °F 29.3 °F 32.2 °F 83% 30.02 in 5.0 mi NW 11.5 mph 17.3 mph N/A   Haze
9:55 PM 37.0 °F 28.5 °F 32.4 °F 83% 30.02 in 5.0 mi NW 13.8 mph 19.6 mph N/A   Haze
10:15 PM 36.9 °F 28.2 °F 32.4 °F 84% 30.02 in 7.0 mi NW 13.8 mph 18.4 mph N/A   Unknown
10:35 PM 36.5 °F 29.7 °F 32.2 °F 84% 30.03 in 7.0 mi NW 9.2 mph 19.6 mph N/A   Unknown
10:55 PM 36.5 °F 28.7 °F 32.4 °F 85% 30.03 in 5.0 mi NW 11.5 mph 19.6 mph N/A   Mist
11:15 PM 36.1 °F 27.7 °F 32.2 °F 86% 30.02 in 5.0 mi NW 12.7 mph 17.3 mph N/A   Mist
11:35 PM 36.0 °F 29.6 °F 32.2 °F 86% 30.03 in 5.0 mi NW 8.1 mph - N/A   Mist
11:55 PM 36.1 °F 29.9 °F 32.2 °F 86% 30.03 in 5.0 mi NW 8.1 mph - N/A   Mist